#datetime,building,power
2022-02-28T00:00:00,pth,2.40
2022-02-28T00:02:00,pth,3.60
2022-02-28T00:04:00,pth,4.80
2022-02-28T00:06:00,pth,4.80
2022-02-28T00:08:00,pth,3.60
2022-02-28T00:09:00,pth,2.40
2022-02-28T00:11:00,pth,4.80
2022-02-28T00:12:00,pth,2.40
2022-02-28T00:14:00,pth,4.80
2022-02-28T00:16:00,pth,4.80
2022-02-28T00:18:00,pth,4.80
2022-02-28T00:20:00,pth,4.80
2022-02-28T00:22:00,pth,4.80
2022-02-28T00:24:00,pth,4.80
2022-02-28T00:26:00,pth,4.80
2022-02-28T00:28:00,pth,3.60
2022-02-28T00:30:00,pth,4.80
2022-02-28T00:31:00,pth,2.40
2022-02-28T00:33:00,pth,3.60
2022-02-28T00:34:00,pth,2.40
2022-02-28T00:35:00,pth,2.40
2022-02-28T00:37:00,pth,3.60
2022-02-28T00:39:00,pth,4.80
2022-02-28T00:40:00,pth,1.20
2022-02-28T00:42:00,pth,4.80
2022-02-28T00:44:00,pth,3.60
2022-02-28T00:46:00,pth,3.60
2022-02-28T00:48:00,pth,4.80
2022-02-28T00:49:00,pth,2.40
2022-02-28T00:51:00,pth,3.60
2022-02-28T00:53:00,pth,3.60
2022-02-28T00:55:00,pth,4.80
2022-02-28T00:57:00,pth,3.60
2022-02-28T00:58:00,pth,2.40
2022-02-28T01:00:00,pth,3.60
2022-02-28T01:01:00,pth,2.40
2022-02-28T01:03:00,pth,3.60
2022-02-28T01:05:00,pth,4.80
2022-02-28T01:07:00,pth,3.60
2022-02-28T01:09:00,pth,3.60
2022-02-28T01:11:00,pth,4.80
2022-02-28T01:13:00,pth,3.60
2022-02-28T01:15:00,pth,4.80
2022-02-28T01:17:00,pth,3.60
2022-02-28T01:19:00,pth,3.60
2022-02-28T01:21:00,pth,4.80
2022-02-28T01:23:00,pth,3.60
2022-02-28T01:24:00,pth,2.40
2022-02-28T01:26:00,pth,3.60
2022-02-28T01:28:00,pth,4.80
2022-02-28T01:30:00,pth,3.60
2022-02-28T01:32:00,pth,3.60
2022-02-28T01:34:00,pth,3.60
2022-02-28T01:36:00,pth,4.80
2022-02-28T01:37:00,pth,2.40
2022-02-28T01:39:00,pth,3.60
2022-02-28T01:41:00,pth,3.60
2022-02-28T01:43:00,pth,3.60
2022-02-28T01:45:00,pth,4.80
2022-02-28T01:47:00,pth,3.60
2022-02-28T01:49:00,pth,4.80
2022-02-28T01:51:00,pth,3.60
2022-02-28T01:52:00,pth,2.40
2022-02-28T01:54:00,pth,3.60
2022-02-28T01:56:00,pth,3.60
2022-02-28T01:58:00,pth,4.80
2022-02-28T02:00:00,pth,4.80
2022-02-28T02:01:00,pth,2.40
2022-02-28T02:03:00,pth,3.60
2022-02-28T02:04:00,pth,2.40
2022-02-28T02:06:00,pth,3.60
2022-02-28T02:08:00,pth,4.80
2022-02-28T02:09:00,pth,2.40
2022-02-28T02:11:00,pth,3.60
2022-02-28T02:12:00,pth,2.40
2022-02-28T02:13:00,pth,1.20
2022-02-28T02:15:00,pth,4.80
2022-02-28T02:17:00,pth,3.60
2022-02-28T02:18:00,pth,2.40
2022-02-28T02:20:00,pth,4.80
2022-02-28T02:22:00,pth,3.60
2022-02-28T02:24:00,pth,4.80
2022-02-28T02:26:00,pth,3.60
2022-02-28T02:28:00,pth,3.60
2022-02-28T02:29:00,pth,2.40
2022-02-28T02:31:00,pth,3.60
2022-02-28T02:33:00,pth,4.80
2022-02-28T02:34:00,pth,2.40
2022-02-28T02:36:00,pth,3.60
2022-02-28T02:38:00,pth,3.60
2022-02-28T02:40:00,pth,4.80
2022-02-28T02:41:00,pth,1.20
2022-02-28T02:43:00,pth,4.80
2022-02-28T02:45:00,pth,3.60
2022-02-28T02:46:00,pth,2.40
2022-02-28T02:48:00,pth,3.60
2022-02-28T02:50:00,pth,3.60
2022-02-28T02:52:00,pth,3.60
2022-02-28T02:54:00,pth,4.80
2022-02-28T02:55:00,pth,1.20
2022-02-28T02:57:00,pth,4.80
2022-02-28T02:59:00,pth,3.60
2022-02-28T03:00:00,pth,1.20
2022-02-28T03:01:00,pth,2.40
2022-02-28T03:03:00,pth,3.60
2022-02-28T03:05:00,pth,4.80
2022-02-28T03:06:00,pth,1.20
2022-02-28T03:07:00,pth,2.40
2022-02-28T03:09:00,pth,4.80
2022-02-28T03:11:00,pth,3.60
2022-02-28T03:13:00,pth,3.60
2022-02-28T03:15:00,pth,3.60
2022-02-28T03:16:00,pth,2.40
2022-02-28T03:18:00,pth,4.80
2022-02-28T03:19:00,pth,1.20
2022-02-28T03:21:00,pth,3.60
2022-02-28T03:22:00,pth,2.40
2022-02-28T03:24:00,pth,3.60
2022-02-28T03:26:00,pth,4.80
2022-02-28T03:28:00,pth,3.60
2022-02-28T03:30:00,pth,4.80
2022-02-28T03:32:00,pth,3.60
2022-02-28T03:34:00,pth,3.60
2022-02-28T03:36:00,pth,3.60
2022-02-28T03:38:00,pth,4.80
2022-02-28T03:40:00,pth,3.60
2022-02-28T03:42:00,pth,4.80
2022-02-28T03:43:00,pth,1.20
2022-02-28T03:45:00,pth,3.60
2022-02-28T03:47:00,pth,3.60
2022-02-28T03:49:00,pth,4.80
2022-02-28T03:51:00,pth,3.60
2022-02-28T03:53:00,pth,3.60
2022-02-28T03:55:00,pth,3.60
2022-02-28T03:57:00,pth,4.80
2022-02-28T03:59:00,pth,3.60
2022-02-28T04:01:00,pth,3.60
2022-02-28T04:03:00,pth,4.80
2022-02-28T04:05:00,pth,3.60
2022-02-28T04:06:00,pth,2.40
2022-02-28T04:08:00,pth,3.60
2022-02-28T04:09:00,pth,2.40
2022-02-28T04:10:00,pth,2.40
2022-02-28T04:11:00,pth,1.19
2022-02-28T04:13:00,pth,4.80
2022-02-28T04:15:00,pth,3.60
2022-02-28T04:16:00,pth,2.40
2022-02-28T04:18:00,pth,3.60
2022-02-28T04:20:00,pth,3.60
2022-02-28T04:21:00,pth,3.60
2022-02-28T04:22:00,pth,4.80
2022-02-28T04:23:00,pth,1.20
2022-02-28T04:25:00,pth,4.80
2022-02-28T04:26:00,pth,2.40
2022-02-28T04:28:00,pth,3.60
2022-02-28T04:30:00,pth,4.80
2022-02-28T04:32:00,pth,3.60
2022-02-28T04:34:00,pth,4.80
2022-02-28T04:36:00,pth,3.60
2022-02-28T04:38:00,pth,4.80
2022-02-28T04:40:00,pth,3.60
2022-02-28T04:42:00,pth,4.80
2022-02-28T04:44:00,pth,3.60
2022-02-28T04:46:00,pth,4.80
2022-02-28T04:48:00,pth,3.60
2022-02-28T04:49:00,pth,2.40
2022-02-28T04:51:00,pth,3.60
2022-02-28T04:53:00,pth,4.80
2022-02-28T04:54:00,pth,1.20
2022-02-28T04:56:00,pth,4.80
2022-02-28T04:58:00,pth,4.80
2022-02-28T05:00:00,pth,3.60
2022-02-28T05:01:00,pth,2.40
2022-02-28T05:03:00,pth,3.60
2022-02-28T05:05:00,pth,4.80
2022-02-28T05:07:00,pth,3.60
2022-02-28T05:09:00,pth,4.80
2022-02-28T05:10:00,pth,2.40
2022-02-28T05:12:00,pth,3.60
2022-02-28T05:14:00,pth,3.60
2022-02-28T05:16:00,pth,3.60
2022-02-28T05:18:00,pth,3.60
2022-02-28T05:20:00,pth,4.80
2022-02-28T05:21:00,pth,1.20
2022-02-28T05:23:00,pth,3.60
2022-02-28T05:25:00,pth,4.80
2022-02-28T05:27:00,pth,3.60
2022-02-28T05:29:00,pth,3.60
2022-02-28T05:31:00,pth,4.80
2022-02-28T05:33:00,pth,3.60
2022-02-28T05:35:00,pth,3.60
2022-02-28T05:37:00,pth,3.60
2022-02-28T05:39:00,pth,4.80
2022-02-28T05:41:00,pth,3.60
2022-02-28T05:43:00,pth,3.60
2022-02-28T05:45:00,pth,4.80
2022-02-28T05:46:00,pth,1.20
2022-02-28T05:48:00,pth,4.80
2022-02-28T05:50:00,pth,3.60
2022-02-28T05:51:00,pth,1.19
2022-02-28T05:53:00,pth,4.80
2022-02-28T05:55:00,pth,3.60
2022-02-28T05:57:00,pth,4.80
2022-02-28T05:59:00,pth,4.80
2022-02-28T06:01:00,pth,4.80
2022-02-28T06:03:00,pth,3.60
2022-02-28T06:04:00,pth,2.40
2022-02-28T06:06:00,pth,4.80
2022-02-28T06:08:00,pth,3.60
2022-02-28T06:10:00,pth,4.80
2022-02-28T06:12:00,pth,3.60
2022-02-28T06:13:00,pth,2.40
2022-02-28T06:15:00,pth,3.60
2022-02-28T06:16:00,pth,2.40
2022-02-28T06:18:00,pth,3.60
2022-02-28T06:20:00,pth,3.60
2022-02-28T06:21:00,pth,2.40
2022-02-28T06:23:00,pth,3.60
2022-02-28T06:24:00,pth,2.40
2022-02-28T06:26:00,pth,3.60
2022-02-28T06:28:00,pth,4.80
2022-02-28T06:30:00,pth,3.60
2022-02-28T06:32:00,pth,4.80
2022-02-28T06:34:00,pth,4.80
2022-02-28T06:35:00,pth,2.40
2022-02-28T06:37:00,pth,3.60
2022-02-28T06:39:00,pth,4.80
2022-02-28T06:41:00,pth,3.60
2022-02-28T06:43:00,pth,3.60
2022-02-28T06:45:00,pth,4.80
2022-02-28T06:47:00,pth,3.60
2022-02-28T06:49:00,pth,3.60
2022-02-28T06:51:00,pth,3.60
2022-02-28T06:53:00,pth,3.60
2022-02-28T06:54:00,pth,1.20
2022-02-28T06:56:00,pth,3.60
2022-02-28T06:58:00,pth,3.60
2022-02-28T06:59:00,pth,2.40
2022-02-28T07:01:00,pth,3.60
2022-02-28T07:03:00,pth,4.80
2022-02-28T07:05:00,pth,3.60
2022-02-28T07:07:00,pth,3.60
2022-02-28T07:09:00,pth,3.60
2022-02-28T07:10:00,pth,1.20
2022-02-28T07:12:00,pth,4.80
2022-02-28T07:14:00,pth,3.60
2022-02-28T07:16:00,pth,2.40
2022-02-28T07:18:00,pth,3.60
2022-02-28T07:20:00,pth,3.60
2022-02-28T07:22:00,pth,4.80
2022-02-28T07:24:00,pth,3.60
2022-02-28T07:26:00,pth,3.60
2022-02-28T07:28:00,pth,3.60
2022-02-28T07:29:00,pth,2.40
2022-02-28T07:31:00,pth,3.60
2022-02-28T07:33:00,pth,3.60
2022-02-28T07:35:00,pth,3.60
2022-02-28T07:37:00,pth,3.60
2022-02-28T07:39:00,pth,3.60
2022-02-28T07:40:00,pth,2.40
2022-02-28T07:42:00,pth,3.60
2022-02-28T07:44:00,pth,3.60
2022-02-28T07:46:00,pth,4.80
2022-02-28T07:48:00,pth,3.60
2022-02-28T07:50:00,pth,3.60
2022-02-28T07:52:00,pth,3.60
2022-02-28T07:53:00,pth,2.40
2022-02-28T07:55:00,pth,4.80
2022-02-28T07:57:00,pth,7.20
2022-02-28T07:59:00,pth,7.20
2022-02-28T08:01:00,pth,4.80
2022-02-28T08:03:00,pth,3.60
2022-02-28T08:05:00,pth,3.60
2022-02-28T08:07:00,pth,4.80
2022-02-28T08:08:00,pth,1.20
2022-02-28T08:10:00,pth,4.80
2022-02-28T08:12:00,pth,3.60
2022-02-28T08:14:00,pth,4.80
2022-02-28T08:16:00,pth,3.60
2022-02-28T08:18:00,pth,3.60
2022-02-28T08:20:00,pth,3.60
2022-02-28T08:22:00,pth,3.60
2022-02-28T08:23:00,pth,1.19
2022-02-28T08:25:00,pth,3.60
2022-02-28T08:27:00,pth,3.60
2022-02-28T08:29:00,pth,3.60
2022-02-28T08:31:00,pth,3.60
2022-02-28T08:33:00,pth,2.40
2022-02-28T08:35:00,pth,6.00
2022-02-28T08:37:00,pth,6.01
2022-02-28T08:38:00,pth,2.40
2022-02-28T08:40:00,pth,3.60
2022-02-28T08:42:00,pth,10.80
2022-02-28T08:44:00,pth,15.60
2022-02-28T08:46:00,pth,15.60
2022-02-28T08:48:00,pth,14.40
2022-02-28T08:50:00,pth,15.60
2022-02-28T08:52:00,pth,14.40
2022-02-28T08:53:00,pth,8.40
2022-02-28T08:55:00,pth,14.40
2022-02-28T08:57:00,pth,14.40
2022-02-28T08:59:00,pth,14.40
2022-02-28T09:00:00,pth,8.40
2022-02-28T09:01:00,pth,7.20
2022-02-28T09:03:00,pth,14.40
2022-02-28T09:05:00,pth,14.40
2022-02-28T09:07:00,pth,15.60
2022-02-28T09:08:00,pth,7.20
2022-02-28T09:10:00,pth,15.60
2022-02-28T09:12:00,pth,14.40
2022-02-28T09:14:00,pth,15.60
2022-02-28T09:16:00,pth,14.40
2022-02-28T09:18:00,pth,15.60
2022-02-28T09:19:00,pth,7.20
2022-02-28T09:21:00,pth,14.40
2022-02-28T09:22:00,pth,8.40
2022-02-28T09:23:00,pth,7.20
2022-02-28T09:25:00,pth,14.40
2022-02-28T09:26:00,pth,7.20
2022-02-28T09:28:00,pth,15.60
2022-02-28T09:30:00,pth,14.40
2022-02-28T09:32:00,pth,15.60
2022-02-28T09:34:00,pth,15.60
2022-02-28T09:36:00,pth,14.40
2022-02-28T09:37:00,pth,8.40
2022-02-28T09:39:00,pth,8.40
2022-02-28T09:41:00,pth,4.80
2022-02-28T09:43:00,pth,3.60
2022-02-28T09:45:00,pth,4.80
2022-02-28T09:47:00,pth,6.01
2022-02-28T09:49:00,pth,6.00
2022-02-28T09:50:00,pth,1.20
2022-02-28T09:52:00,pth,3.60
2022-02-28T09:54:00,pth,3.60
2022-02-28T09:56:00,pth,3.60
2022-02-28T09:57:00,pth,2.40
2022-02-28T09:58:00,pth,1.20
2022-02-28T10:00:00,pth,3.60
2022-02-28T10:01:00,pth,1.20
2022-02-28T10:03:00,pth,3.60
2022-02-28T10:05:00,pth,3.60
2022-02-28T10:07:00,pth,4.80
2022-02-28T10:09:00,pth,3.60
2022-02-28T10:10:00,pth,2.40
2022-02-28T10:12:00,pth,3.60
2022-02-28T10:14:00,pth,3.60
2022-02-28T10:16:00,pth,3.60
2022-02-28T10:17:00,pth,2.40
2022-02-28T10:18:00,pth,2.40
2022-02-28T10:20:00,pth,3.60
2022-02-28T10:22:00,pth,3.60
2022-02-28T10:24:00,pth,3.60
2022-02-28T10:25:00,pth,2.40
2022-02-28T10:27:00,pth,3.60
2022-02-28T10:29:00,pth,3.60
2022-02-28T10:31:00,pth,3.60
2022-02-28T10:33:00,pth,3.60
2022-02-28T10:35:00,pth,3.60
2022-02-28T10:37:00,pth,3.60
2022-02-28T10:39:00,pth,3.60
2022-02-28T10:41:00,pth,3.60
2022-02-28T10:43:00,pth,4.80
2022-02-28T10:45:00,pth,3.60
2022-02-28T10:47:00,pth,3.60
2022-02-28T10:49:00,pth,3.60
2022-02-28T10:51:00,pth,3.60
2022-02-28T10:53:00,pth,3.60
2022-02-28T10:55:00,pth,3.60
2022-02-28T10:57:00,pth,3.60
2022-02-28T10:59:00,pth,3.60
2022-02-28T11:01:00,pth,3.60
2022-02-28T11:02:00,pth,1.20
2022-02-28T11:04:00,pth,3.60
2022-02-28T11:06:00,pth,3.60
2022-02-28T11:08:00,pth,3.60
2022-02-28T11:09:00,pth,2.40
2022-02-28T11:11:00,pth,2.40
2022-02-28T11:12:00,pth,2.40
2022-02-28T11:14:00,pth,2.40
2022-02-28T11:16:00,pth,3.60
2022-02-28T11:18:00,pth,3.60
2022-02-28T11:19:00,pth,1.20
2022-02-28T11:21:00,pth,3.60
2022-02-28T11:23:00,pth,3.60
2022-02-28T11:25:00,pth,3.60
2022-02-28T11:27:00,pth,3.60
2022-02-28T11:29:00,pth,3.60
2022-02-28T11:31:00,pth,3.60
2022-02-28T11:33:00,pth,2.40
2022-02-28T11:35:00,pth,3.60
2022-02-28T11:36:00,pth,1.20
2022-02-28T11:38:00,pth,3.60
2022-02-28T11:39:00,pth,2.40
2022-02-28T11:41:00,pth,2.40
2022-02-28T11:43:00,pth,3.60
2022-02-28T11:45:00,pth,3.60
2022-02-28T11:46:00,pth,1.20
2022-02-28T11:48:00,pth,3.60
2022-02-28T11:50:00,pth,4.80
2022-02-28T11:52:00,pth,2.40
2022-02-28T11:53:00,pth,2.40
2022-02-28T11:55:00,pth,3.60
2022-02-28T11:56:00,pth,1.20
2022-02-28T11:57:00,pth,2.40
2022-02-28T11:59:00,pth,3.60
2022-02-28T12:01:00,pth,3.60
2022-02-28T12:03:00,pth,3.60
2022-02-28T12:04:00,pth,1.20
2022-02-28T12:06:00,pth,3.60
2022-02-28T12:08:00,pth,3.60
2022-02-28T12:10:00,pth,3.60
2022-02-28T12:11:00,pth,1.20
2022-02-28T12:12:00,pth,2.40
2022-02-28T12:13:00,pth,1.20
2022-02-28T12:15:00,pth,3.60
2022-02-28T12:17:00,pth,3.60
2022-02-28T12:19:00,pth,2.40
2022-02-28T12:21:00,pth,4.80
2022-02-28T12:23:00,pth,3.60
2022-02-28T12:24:00,pth,2.40
2022-02-28T12:26:00,pth,3.60
2022-02-28T12:28:00,pth,3.60
2022-02-28T12:30:00,pth,2.40
2022-02-28T12:32:00,pth,3.60
2022-02-28T12:34:00,pth,3.60
2022-02-28T12:36:00,pth,2.40
2022-02-28T12:38:00,pth,3.60
2022-02-28T12:40:00,pth,3.60
2022-02-28T12:41:00,pth,2.40
2022-02-28T12:43:00,pth,2.40
2022-02-28T12:45:00,pth,3.60
2022-02-28T12:46:00,pth,1.20
2022-02-28T12:48:00,pth,8.40
2022-02-28T12:50:00,pth,14.40
2022-02-28T12:51:00,pth,7.20
2022-02-28T12:53:00,pth,15.60
2022-02-28T12:55:00,pth,14.40
2022-02-28T12:57:00,pth,14.40
2022-02-28T12:59:00,pth,14.40
2022-02-28T13:01:00,pth,14.40
2022-02-28T13:03:00,pth,14.40
2022-02-28T13:05:00,pth,14.40
2022-02-28T13:07:00,pth,14.41
2022-02-28T13:09:00,pth,13.20
2022-02-28T13:11:00,pth,14.40
2022-02-28T13:12:00,pth,7.20
2022-02-28T13:14:00,pth,14.40
2022-02-28T13:16:00,pth,14.40
2022-02-28T13:18:00,pth,13.20
2022-02-28T13:19:00,pth,7.20
2022-02-28T13:21:00,pth,14.40
2022-02-28T13:23:00,pth,14.40
2022-02-28T13:24:00,pth,7.21
2022-02-28T13:26:00,pth,14.40
2022-02-28T13:28:00,pth,14.40
2022-02-28T13:29:00,pth,7.20
2022-02-28T13:31:00,pth,15.60
2022-02-28T13:32:00,pth,7.20
2022-02-28T13:34:00,pth,14.40
2022-02-28T13:36:00,pth,13.20
2022-02-28T13:37:00,pth,7.20
2022-02-28T13:39:00,pth,14.40
2022-02-28T13:41:00,pth,14.40
2022-02-28T13:43:00,pth,14.40
2022-02-28T13:45:00,pth,9.60
2022-02-28T13:47:00,pth,3.60
2022-02-28T13:49:00,pth,2.40
2022-02-28T13:51:00,pth,3.60
2022-02-28T13:53:00,pth,3.60
2022-02-28T13:55:00,pth,3.60
2022-02-28T13:56:00,pth,2.40
2022-02-28T13:58:00,pth,3.60
2022-02-28T13:59:00,pth,1.20
2022-02-28T14:01:00,pth,3.60
2022-02-28T14:02:00,pth,1.20
2022-02-28T14:04:00,pth,3.60
2022-02-28T14:05:00,pth,1.20
2022-02-28T14:07:00,pth,3.60
2022-02-28T14:09:00,pth,3.60
2022-02-28T14:11:00,pth,3.60
2022-02-28T14:12:00,pth,2.40
2022-02-28T14:14:00,pth,3.60
2022-02-28T14:16:00,pth,3.60
2022-02-28T14:17:00,pth,2.40
2022-02-28T14:19:00,pth,3.60
2022-02-28T14:20:00,pth,1.20
2022-02-28T14:22:00,pth,3.60
2022-02-28T14:24:00,pth,3.60
2022-02-28T14:25:00,pth,2.40
2022-02-28T14:27:00,pth,3.60
2022-02-28T14:29:00,pth,3.60
2022-02-28T14:30:00,pth,2.40
2022-02-28T14:31:00,pth,2.40
2022-02-28T14:33:00,pth,3.60
2022-02-28T14:34:00,pth,1.20
2022-02-28T14:36:00,pth,3.60
2022-02-28T14:38:00,pth,3.60
2022-02-28T14:40:00,pth,3.60
2022-02-28T14:41:00,pth,1.20
2022-02-28T14:43:00,pth,3.60
2022-02-28T14:45:00,pth,3.60
2022-02-28T14:47:00,pth,3.60
2022-02-28T14:49:00,pth,3.60
2022-02-28T14:51:00,pth,3.60
2022-02-28T14:53:00,pth,3.60
2022-02-28T14:55:00,pth,3.60
2022-02-28T14:57:00,pth,3.60
2022-02-28T14:59:00,pth,3.60
2022-02-28T15:00:00,pth,2.40
2022-02-28T15:02:00,pth,3.60
2022-02-28T15:03:00,pth,1.19
2022-02-28T15:05:00,pth,3.60
2022-02-28T15:07:00,pth,3.60
2022-02-28T15:09:00,pth,3.60
2022-02-28T15:11:00,pth,4.80
2022-02-28T15:12:00,pth,1.20
2022-02-28T15:13:00,pth,2.40
2022-02-28T15:15:00,pth,3.60
2022-02-28T15:17:00,pth,3.60
2022-02-28T15:19:00,pth,3.60
2022-02-28T15:20:00,pth,2.40
2022-02-28T15:22:00,pth,3.60
2022-02-28T15:23:00,pth,2.40
2022-02-28T15:25:00,pth,3.60
2022-02-28T15:26:00,pth,1.20
2022-02-28T15:28:00,pth,3.60
2022-02-28T15:30:00,pth,4.80
2022-02-28T15:31:00,pth,1.19
2022-02-28T15:33:00,pth,3.60
2022-02-28T15:34:00,pth,2.40
2022-02-28T15:36:00,pth,3.60
2022-02-28T15:38:00,pth,2.40
2022-02-28T15:39:00,pth,2.40
2022-02-28T15:41:00,pth,3.60
2022-02-28T15:43:00,pth,2.40
2022-02-28T15:45:00,pth,3.60
2022-02-28T15:46:00,pth,2.40
2022-02-28T15:48:00,pth,2.40
2022-02-28T15:50:00,pth,3.60
2022-02-28T15:51:00,pth,2.40
2022-02-28T15:53:00,pth,3.60
2022-02-28T15:55:00,pth,2.40
2022-02-28T15:57:00,pth,3.60
2022-02-28T15:58:00,pth,2.40
2022-02-28T15:59:00,pth,1.20
2022-02-28T16:01:00,pth,3.60
2022-02-28T16:02:00,pth,1.19
2022-02-28T16:04:00,pth,4.80
2022-02-28T16:05:00,pth,1.20
2022-02-28T16:08:00,pth,3.60
2022-02-28T16:09:00,pth,3.60
2022-02-28T16:11:00,pth,6.00
2022-02-28T16:13:00,pth,6.00
2022-02-28T16:15:00,pth,7.20
2022-02-28T16:17:00,pth,4.80
2022-02-28T16:19:00,pth,4.80
2022-02-28T16:20:00,pth,1.20
2022-02-28T16:22:00,pth,4.80
2022-02-28T16:24:00,pth,3.60
2022-02-28T16:26:00,pth,3.60
2022-02-28T16:27:00,pth,2.40
2022-02-28T16:29:00,pth,3.60
2022-02-28T16:31:00,pth,3.60
2022-02-28T16:32:00,pth,2.40
2022-02-28T16:34:00,pth,3.60
2022-02-28T16:36:00,pth,3.60
2022-02-28T16:37:00,pth,2.40
2022-02-28T16:39:00,pth,3.60
2022-02-28T16:41:00,pth,4.80
2022-02-28T16:43:00,pth,3.60
2022-02-28T16:45:00,pth,3.60
2022-02-28T16:46:00,pth,1.20
2022-02-28T16:48:00,pth,3.60
2022-02-28T16:50:00,pth,3.60
2022-02-28T16:52:00,pth,3.60
2022-02-28T16:54:00,pth,3.60
2022-02-28T16:56:00,pth,3.60
2022-02-28T16:58:00,pth,4.80
2022-02-28T17:00:00,pth,3.60
2022-02-28T17:01:00,pth,2.40
2022-02-28T17:03:00,pth,3.60
2022-02-28T17:05:00,pth,2.40
2022-02-28T17:07:00,pth,3.60
2022-02-28T17:08:00,pth,2.40
2022-02-28T17:10:00,pth,3.60
2022-02-28T17:12:00,pth,4.80
2022-02-28T17:14:00,pth,2.40
2022-02-28T17:16:00,pth,3.60
2022-02-28T17:17:00,pth,2.40
2022-02-28T17:19:00,pth,3.60
2022-02-28T17:21:00,pth,3.60
2022-02-28T17:22:00,pth,1.20
2022-02-28T17:24:00,pth,3.60
2022-02-28T17:26:00,pth,3.60
2022-02-28T17:28:00,pth,3.60
2022-02-28T17:30:00,pth,3.60
2022-02-28T17:32:00,pth,3.60
2022-02-28T17:33:00,pth,1.20
2022-02-28T17:35:00,pth,4.80
2022-02-28T17:37:00,pth,3.60
2022-02-28T17:38:00,pth,1.20
2022-02-28T17:40:00,pth,3.60
2022-02-28T17:42:00,pth,3.60
2022-02-28T17:44:00,pth,3.60
2022-02-28T17:46:00,pth,3.60
2022-02-28T17:48:00,pth,3.60
2022-02-28T17:50:00,pth,3.60
2022-02-28T17:52:00,pth,4.80
2022-02-28T17:54:00,pth,3.60
2022-02-28T17:56:00,pth,4.80
2022-02-28T17:58:00,pth,4.80
2022-02-28T18:00:00,pth,3.60
2022-02-28T18:02:00,pth,4.80
2022-02-28T18:04:00,pth,3.60
2022-02-28T18:06:00,pth,4.80
2022-02-28T18:08:00,pth,3.60
2022-02-28T18:10:00,pth,4.80
2022-02-28T18:11:00,pth,2.40
2022-02-28T18:13:00,pth,4.80
2022-02-28T18:15:00,pth,4.80
2022-02-28T18:17:00,pth,4.80
2022-02-28T18:19:00,pth,6.01
2022-02-28T18:21:00,pth,4.80
2022-02-28T18:22:00,pth,4.80
2022-02-28T18:23:00,pth,2.40
2022-02-28T18:24:00,pth,4.80
2022-02-28T18:26:00,pth,6.00
2022-02-28T18:28:00,pth,6.00
2022-02-28T18:30:00,pth,4.80
2022-02-28T18:32:00,pth,4.80
2022-02-28T18:33:00,pth,2.40
2022-02-28T18:34:00,pth,2.40
2022-02-28T18:36:00,pth,6.01
2022-02-28T18:38:00,pth,8.40
2022-02-28T18:40:00,pth,15.59
2022-02-28T18:41:00,pth,2.40
2022-02-28T18:43:00,pth,4.80
2022-02-28T18:45:00,pth,4.80
2022-02-28T18:47:00,pth,4.80
2022-02-28T18:49:00,pth,12.00
2022-02-28T18:51:00,pth,15.60
2022-02-28T18:53:00,pth,15.59
2022-02-28T18:55:00,pth,15.60
2022-02-28T18:57:00,pth,15.60
2022-02-28T18:59:00,pth,14.40
2022-02-28T19:00:00,pth,8.40
2022-02-28T19:02:00,pth,14.40
2022-02-28T19:03:00,pth,8.40
2022-02-28T19:05:00,pth,15.60
2022-02-28T19:07:00,pth,14.40
2022-02-28T19:09:00,pth,15.60
2022-02-28T19:11:00,pth,7.20
2022-02-28T19:12:00,pth,1.20
2022-02-28T19:14:00,pth,4.80
2022-02-28T19:15:00,pth,2.40
2022-02-28T19:17:00,pth,4.80
2022-02-28T19:18:00,pth,2.40
2022-02-28T19:20:00,pth,4.80
2022-02-28T19:22:00,pth,4.80
2022-02-28T19:24:00,pth,4.80
2022-02-28T19:25:00,pth,2.40
2022-02-28T19:27:00,pth,3.60
2022-02-28T19:29:00,pth,4.80
2022-02-28T19:31:00,pth,4.80
2022-02-28T19:33:00,pth,4.80
2022-02-28T19:35:00,pth,4.80
2022-02-28T19:37:00,pth,4.80
2022-02-28T19:39:00,pth,4.80
2022-02-28T19:40:00,pth,2.40
2022-02-28T19:41:00,pth,2.40
2022-02-28T19:43:00,pth,4.80
2022-02-28T19:45:00,pth,6.00
2022-02-28T19:47:00,pth,4.80
2022-02-28T19:48:00,pth,3.60
2022-02-28T19:49:00,pth,2.40
2022-02-28T19:51:00,pth,6.00
2022-02-28T19:53:00,pth,4.80
2022-02-28T19:55:00,pth,6.00
2022-02-28T19:56:00,pth,2.40
2022-02-28T19:58:00,pth,4.80
2022-02-28T19:59:00,pth,2.40
2022-02-28T20:01:00,pth,4.80
2022-02-28T20:02:00,pth,2.40
2022-02-28T20:04:00,pth,4.80
2022-02-28T20:05:00,pth,2.40
2022-02-28T20:07:00,pth,4.80
2022-02-28T20:09:00,pth,4.80
2022-02-28T20:11:00,pth,3.60
2022-02-28T20:12:00,pth,2.40
2022-02-28T20:14:00,pth,4.80
2022-02-28T20:16:00,pth,4.80
2022-02-28T20:18:00,pth,3.60
2022-02-28T20:20:00,pth,4.80
2022-02-28T20:22:00,pth,3.60
2022-02-28T20:24:00,pth,4.80
2022-02-28T20:25:00,pth,2.40
2022-02-28T20:27:00,pth,4.80
2022-02-28T20:29:00,pth,4.80
2022-02-28T20:30:00,pth,2.40
2022-02-28T20:32:00,pth,4.80
2022-02-28T20:34:00,pth,9.60
2022-02-28T20:36:00,pth,15.60
2022-02-28T20:37:00,pth,15.60
2022-02-28T20:38:00,pth,16.80
2022-02-28T20:39:00,pth,7.20
2022-02-28T20:41:00,pth,16.80
2022-02-28T20:43:00,pth,15.60
2022-02-28T20:45:00,pth,15.59
2022-02-28T20:47:00,pth,15.60
2022-02-28T20:49:00,pth,16.80
2022-02-28T20:51:00,pth,15.60
2022-02-28T20:52:00,pth,7.20
2022-02-28T20:54:00,pth,15.60
2022-02-28T20:56:00,pth,15.60
2022-02-28T20:58:00,pth,15.60
2022-02-28T21:00:00,pth,15.60
2022-02-28T21:01:00,pth,7.20
2022-02-28T21:02:00,pth,8.40
2022-02-28T21:04:00,pth,15.60
2022-02-28T21:06:00,pth,16.79
2022-02-28T21:07:00,pth,8.40
2022-02-28T21:09:00,pth,15.60
2022-02-28T21:10:00,pth,8.40
2022-02-28T21:12:00,pth,15.60
2022-02-28T21:13:00,pth,8.40
2022-02-28T21:14:00,pth,8.40
2022-02-28T21:16:00,pth,15.60
2022-02-28T21:18:00,pth,15.60
2022-02-28T21:20:00,pth,15.59
2022-02-28T21:21:00,pth,7.21
2022-02-28T21:23:00,pth,15.59
2022-02-28T21:25:00,pth,15.60
2022-02-28T21:27:00,pth,15.60
2022-02-28T21:29:00,pth,15.60
2022-02-28T21:31:00,pth,12.00
2022-02-28T21:33:00,pth,6.00
2022-02-28T21:35:00,pth,4.80
2022-02-28T21:37:00,pth,4.80
2022-02-28T21:39:00,pth,6.00
2022-02-28T21:40:00,pth,2.40
2022-02-28T21:42:00,pth,4.80
2022-02-28T21:44:00,pth,6.00
2022-02-28T21:46:00,pth,4.80
2022-02-28T21:48:00,pth,6.01
2022-02-28T21:50:00,pth,3.60
2022-02-28T21:51:00,pth,2.40
2022-02-28T21:53:00,pth,4.80
2022-02-28T21:55:00,pth,4.80
2022-02-28T21:56:00,pth,2.40
2022-02-28T21:58:00,pth,6.00
2022-02-28T22:00:00,pth,4.80
2022-02-28T22:02:00,pth,4.80
2022-02-28T22:03:00,pth,3.60
2022-02-28T22:05:00,pth,4.80
2022-02-28T22:07:00,pth,6.00
2022-02-28T22:09:00,pth,6.00
2022-02-28T22:10:00,pth,3.60
2022-02-28T22:12:00,pth,6.00
2022-02-28T22:14:00,pth,6.00
2022-02-28T22:16:00,pth,4.80
2022-02-28T22:18:00,pth,6.00
2022-02-28T22:19:00,pth,2.40
2022-02-28T22:21:00,pth,6.01
2022-02-28T22:23:00,pth,4.80
2022-02-28T22:24:00,pth,2.40
2022-02-28T22:25:00,pth,3.60
2022-02-28T22:27:00,pth,6.00
2022-02-28T22:29:00,pth,7.20
2022-02-28T22:30:00,pth,2.40
2022-02-28T22:32:00,pth,4.80
2022-02-28T22:34:00,pth,4.80
2022-02-28T22:35:00,pth,2.40
2022-02-28T22:37:00,pth,4.80
2022-02-28T22:39:00,pth,6.00
2022-02-28T22:41:00,pth,4.80
2022-02-28T22:43:00,pth,3.60
2022-02-28T22:45:00,pth,4.80
2022-02-28T22:47:00,pth,4.80
2022-02-28T22:49:00,pth,4.80
2022-02-28T22:51:00,pth,4.80
